Date,TemperatureHighF,TemperatureAvgF,TemperatureLowF,DewpointHighF,DewpointAvgF,DewpointLowF,HumidityHigh,HumidityAvg,HumidityLow,PressureMaxIn,PressureMinIn,WindSpeedMaxMPH,WindSpeedAvgMPH,GustSpeedMaxMPH,PrecipitationSumIn
2013-1-1,33.0,29.1,20.0,32.0,26.6,17.0,98,91,80,30.10,29.98,1,0,0,0.00
2013-1-2,26.0,17.9,9.0,17.0,11.7,6.0,90,77,53,30.19,30.09,2,0,0,0.00
2013-1-3,32.0,23.1,13.0,28.0,18.2,9.0,87,81,73,30.24,30.13,5,1,0,0.00
2013-1-4,32.0,27.2,22.0,28.0,21.8,19.0,89,80,71,30.29,30.23,7,3,0,0.00
2013-1-5,39.0,29.3,19.0,33.0,25.7,17.0,94,87,67,30.26,30.06,5,1,0,0.00
2013-1-6,37.0,32.2,27.0,33.0,28.5,23.0,90,86,81,30.30,29.95,7,2,0,0.00
2013-1-7,37.0,27.3,19.0,30.0,23.6,17.0,99,86,76,30.37,30.15,3,0,0,0.00
2013-1-8,44.0,33.0,24.0,35.0,28.2,22.0,93,83,71,30.22,30.13,1,0,0,0.00
2013-1-9,50.0,42.0,32.0,43.0,36.6,30.0,92,81,70,30.44,30.11,6,1,0,0.00
2013-1-10,45.0,36.6,29.0,43.0,33.7,27.0,97,90,76,30.45,29.98,5,2,0,0.00
2013-1-11,59.0,47.2,45.0,55.0,33.9,-99.9,99,81,77,29.98,29.77,9,2,0,0.00
2013-1-12,65.0,52.9,46.0,59.0,47.2,-99.9,99,89,79,30.07,29.72,3,0,0,0.00
2013-1-13,51.0,35.0,24.0,50.0,28.6,-99.9,98,91,87,30.14,29.61,7,2,0,0.00
2013-1-14,26.0,22.5,18.0,21.0,18.5,15.0,90,85,76,30.37,30.14,3,1,0,0.00
2013-1-15,32.0,26.8,21.0,26.0,22.5,18.0,90,84,72,30.32,30.03,4,1,0,0.00
2013-1-16,34.0,30.7,28.0,26.0,25.4,23.0,89,81,68,30.03,29.91,3,1,0,0.00
2013-1-17,43.0,33.8,26.0,35.0,26.9,18.0,87,76,63,30.35,30.02,3,0,0,0.00
2013-1-18,41.0,30.9,20.0,29.0,22.3,17.0,89,72,50,30.43,30.09,6,2,0,0.00
2013-1-19,55.0,46.2,39.0,40.0,33.3,27.0,76,61,53,30.10,29.81,9,6,0,0.00
2013-1-20,47.0,30.2,23.0,40.0,19.9,13.0,79,65,52,30.21,29.86,11,3,0,0.00
2013-1-21,24.0,18.0,11.0,18.0,9.3,0.0,81,68,56,30.20,30.07,9,4,0,0.00
2013-1-22,18.0,12.0,6.0,4.0,1.9,-1.0,75,64,50,30.32,30.20,6,3,0,0.00
2013-1-23,24.0,17.9,12.0,15.0,7.5,3.0,72,63,58,30.28,30.03,3,1,0,0.00
2013-1-24,25.0,20.8,16.0,15.0,10.6,6.0,86,65,48,30.52,30.08,3,1,0,0.00
2013-1-25,27.0,23.0,19.0,21.0,16.4,9.0,96,76,58,30.34,29.97,4,1,0,0.00
2013-1-26,33.0,23.8,15.0,23.0,17.9,12.0,89,79,62,30.35,30.03,1,0,0,0.00
2013-1-27,38.0,28.3,20.0,37.0,24.4,16.0,97,85,76,30.34,30.00,3,1,0,0.00
2013-1-28,42.0,15.3,-33.0,42.0,-42.4,-99.9,99,40,97,30.09,29.92,3,1,0,0.00
2013-1-29,65.0,9.9,-55.0,61.0,-33.6,-99.9,93,38,88,29.94,29.38,6,2,0,0.00
2013-1-30,66.0,47.1,29.0,62.0,44.6,26.0,99,91,84,29.57,29.21,12,6,0,0.00
2013-1-31,29.0,24.1,13.0,26.0,19.4,7.0,92,82,72,30.04,29.55,10,6,0,0.00
2013-2-1,17.0,11.9,7.0,10.0,5.8,1.0,83,76,70,30.34,30.04,7,4,0,0.00
2013-2-2,29.0,23.3,17.0,26.0,19.8,11.0,92,87,78,30.21,29.92,4,2,0,0.00
2013-2-3,25.0,19.2,13.0,22.0,15.8,10.0,91,86,81,30.03,29.90,7,2,0,0.00
2013-2-4,38.0,28.7,19.0,34.0,24.8,16.0,95,85,71,30.03,29.72,4,1,0,0.00
2013-2-5,37.0,32.0,25.0,34.0,28.2,22.0,91,86,79,29.95,29.77,4,1,0,0.00
2013-2-6,36.0,31.7,30.0,32.0,27.3,25.0,89,84,75,30.20,29.95,2,0,0,0.00
2013-2-7,53.0,41.5,31.0,46.0,36.0,28.0,95,81,67,30.12,29.73,2,0,0,0.00
2013-2-8,46.0,35.1,29.0,45.0,31.6,25.0,96,87,75,30.28,29.75,5,2,0,0.00
2013-2-9,41.0,32.5,23.0,30.0,26.3,20.0,91,78,64,30.35,30.11,2,1,0,0.00
2013-2-10,51.0,42.6,33.0,49.0,37.0,26.0,96,81,70,30.11,29.66,6,2,0,0.00
2013-2-11,52.0,42.4,35.0,50.0,35.3,29.0,97,76,65,29.98,29.65,11,6,0,0.00
2013-2-12,46.0,35.4,27.0,34.0,29.3,24.0,91,79,57,30.08,29.88,3,1,0,0.00
2013-2-13,45.0,34.9,29.0,32.0,28.6,27.0,91,79,58,29.87,29.72,4,1,0,0.00
2013-2-14,50.0,41.1,35.0,41.0,35.5,31.0,94,81,68,29.94,29.74,8,3,0,0.00
2013-2-15,37.0,32.5,25.0,32.0,27.2,20.0,90,81,66,30.10,29.92,4,1,0,0.00
2013-2-16,27.0,23.6,21.0,21.0,16.8,13.0,86,75,62,30.08,30.02,6,2,0,0.00
2013-2-17,26.0,19.2,14.0,18.0,12.5,10.0,85,75,58,30.17,30.06,1,0,0,0.00
2013-2-18,59.0,40.9,27.0,46.0,31.1,16.0,92,69,51,30.08,29.54,11,4,0,0.00
2013-2-19,47.0,29.0,23.0,45.0,23.7,15.0,94,80,71,30.06,29.53,11,8,0,0.00
2013-2-20,28.0,21.7,14.0,18.0,13.9,8.0,79,72,61,30.25,30.06,8,2,0,0.00
2013-2-21,32.0,25.9,19.0,27.0,21.1,14.0,93,82,71,30.27,29.93,8,3,0,0.00
2013-2-22,37.0,34.0,29.0,35.0,32.1,27.0,98,93,85,29.96,29.78,5,2,0,0.00
2013-2-23,39.0,31.5,25.0,30.0,25.5,21.0,88,79,64,29.94,29.85,4,2,0,0.00
2013-2-24,42.0,32.1,23.0,31.0,25.9,20.0,91,78,63,30.07,29.91,3,0,0,0.00
2013-2-25,46.0,36.1,27.0,34.0,28.4,23.0,86,74,60,30.09,29.80,7,2,0,0.00
2013-2-26,43.0,39.2,34.0,42.0,36.1,29.0,98,90,70,29.80,29.31,9,4,0,0.00
2013-2-27,42.0,35.6,32.0,41.0,34.2,31.0,97,95,90,29.64,29.41,8,4,0,0.00
2013-2-28,38.0,34.6,32.0,36.0,32.7,30.0,97,93,87,29.92,29.63,6,2,0,0.00
2013-3-1,35.0,33.1,31.0,33.0,30.6,28.0,94,91,86,30.00,29.89,1,0,0,0.00
2013-3-2,31.0,29.5,27.0,28.0,24.0,22.0,88,80,71,30.04,29.98,2,1,0,0.00
2013-3-3,36.0,29.5,26.0,26.0,22.1,20.0,88,74,59,30.05,29.99,4,1,0,0.00
2013-3-4,40.0,31.3,21.0,31.0,24.6,18.0,90,77,61,30.07,29.88,4,1,0,0.00
2013-3-5,38.0,35.1,30.0,35.0,32.4,28.0,98,91,79,29.90,29.58,5,2,0,0.00
2013-3-6,33.0,30.3,28.0,31.0,28.7,27.0,97,94,92,30.20,29.68,3,1,0,0.00
2013-3-7,38.0,32.2,30.0,33.0,29.8,28.0,95,91,78,30.32,30.20,1,1,0,0.00
2013-3-8,34.0,33.5,33.0,28.0,28.0,28.0,80,79,78,30.32,30.30,1,0,0,0.00
2013-3-9,54.0,44.0,33.0,40.0,34.9,28.0,85,71,57,30.30,29.91,2,1,0,0.00
2013-3-10,65.0,55.8,49.0,47.0,42.5,39.0,76,62,46,29.91,29.69,5,2,0,0.00
2013-3-11,60.0,47.2,34.0,52.0,43.6,31.0,98,88,60,29.81,29.56,9,4,0,0.00
2013-3-12,44.0,36.2,33.0,33.0,30.4,27.0,93,80,61,29.98,29.81,9,5,0,0.00
2013-3-13,34.0,31.0,29.0,31.0,24.9,21.0,90,78,70,30.26,29.96,6,3,0,0.00
2013-3-14,43.0,32.3,22.0,33.0,24.3,19.0,91,74,46,30.28,30.11,4,1,0,0.00
2013-3-15,51.0,39.5,29.0,43.0,35.1,28.0,97,85,69,30.11,29.68,2,0,0,0.00
2013-3-16,51.0,44.3,37.0,46.0,40.8,33.0,93,87,79,29.97,29.55,3,1,0,0.00
2013-3-17,38.0,34.7,31.0,33.0,30.0,26.0,88,83,75,30.08,29.90,7,3,0,0.00
2013-3-18,43.0,37.5,33.0,42.0,36.0,31.0,98,95,89,29.90,29.53,9,4,0,0.00
2013-3-19,42.0,34.1,26.0,36.0,23.8,20.0,93,67,46,30.05,29.76,12,6,0,0.00
2013-3-20,34.0,29.6,25.0,23.0,18.6,13.0,74,63,52,30.05,29.95,9,3,0,0.00
2013-3-21,35.0,27.9,19.0,20.0,16.1,12.0,77,61,51,29.98,29.92,5,2,0,0.00
2013-3-22,45.0,33.0,21.0,25.0,21.2,17.0,86,63,42,30.00,29.92,3,0,0,0.00
2013-3-23,51.0,41.1,35.0,31.0,27.7,24.0,71,59,44,30.01,29.83,3,0,0,0.00
2013-3-24,38.0,34.2,30.0,34.0,30.3,27.0,97,86,66,29.84,29.39,10,3,0,0.00
2013-3-25,35.0,31.5,29.0,33.0,30.0,28.0,97,94,89,29.93,29.41,3,1,0,0.00
2013-3-26,40.0,34.8,31.0,33.0,29.2,27.0,94,81,60,30.19,29.93,5,2,0,0.00
2013-3-27,42.0,35.1,27.0,32.0,27.7,24.0,93,75,57,30.26,30.19,4,1,0,0.00
2013-3-28,50.0,38.2,28.0,33.0,28.7,24.0,89,70,50,30.31,30.22,3,0,0,0.00
2013-3-29,57.0,43.4,31.0,38.0,32.8,27.0,88,68,47,30.26,30.14,1,0,0,0.00
2013-3-30,59.0,47.1,33.0,41.0,36.7,30.0,91,69,47,30.17,29.86,3,1,0,0.00
2013-3-31,61.0,51.0,46.0,47.0,42.9,-99.9,95,77,53,29.86,29.71,8,2,0,0.00
2013-4-1,49.0,41.6,36.0,45.0,28.9,21.0,86,62,43,30.09,29.77,6,2,0,0.00
2013-4-2,46.0,37.0,28.0,25.0,22.5,21.0,74,57,39,30.22,30.08,4,1,0,0.00
2013-4-3,49.0,38.8,27.0,27.0,23.5,19.0,78,55,40,30.36,30.20,4,1,0,0.00
2013-4-4,59.0,44.6,34.0,36.0,27.3,23.0,66,52,29,30.27,29.93,3,1,0,0.00
2013-4-5,60.0,48.0,36.0,40.0,33.6,28.0,77,59,41,30.08,29.93,2,0,0,0.00
2013-4-6,70.0,53.8,41.0,47.0,37.3,29.0,68,54,43,30.10,29.77,4,2,0,0.00
2013-4-7,74.0,65.7,59.0,52.0,48.1,43.0,67,53,43,29.89,29.74,8,3,0,0.00
2013-4-8,72.0,63.2,56.0,61.0,56.5,51.0,93,80,67,29.91,29.78,8,2,0,0.00
2013-4-9,80.0,68.5,56.0,66.0,59.3,53.0,92,74,55,29.95,29.83,9,2,0,0.00
2013-4-10,80.0,70.8,61.0,71.0,64.6,60.0,95,81,69,29.87,29.69,8,2,0,0.00
2013-4-11,66.0,61.7,52.0,64.0,60.1,51.0,98,95,89,29.73,29.48,4,2,0,0.00
2013-4-12,52.0,43.0,39.0,51.0,37.4,33.0,98,81,70,29.87,29.53,8,4,0,0.00
2013-4-13,52.0,45.6,41.0,41.0,37.4,34.0,85,73,59,29.96,29.86,9,4,0,0.00
2013-4-14,72.0,55.8,41.0,53.0,44.9,36.0,90,69,46,29.97,29.76,3,1,0,0.00
2013-4-15,71.0,61.9,54.0,60.0,54.1,49.0,86,76,65,29.91,29.79,5,1,0,0.00
2013-4-16,63.0,56.9,51.0,58.0,54.0,49.0,98,91,81,30.13,29.83,2,1,0,0.00
2013-4-17,76.0,62.2,49.0,71.0,59.9,48.0,99,92,84,30.14,29.85,5,1,0,0.00
2013-4-18,78.0,67.3,62.0,68.0,63.8,61.0,99,89,70,29.85,29.58,7,2,0,0.00
2013-4-19,51.0,40.7,38.0,50.0,36.2,33.0,98,84,75,29.92,29.51,10,6,0,0.00
2013-4-20,48.0,40.8,33.0,36.0,31.9,29.0,92,72,51,30.34,29.92,10,2,0,0.00
2013-4-21,57.0,44.5,32.0,39.0,32.3,25.0,81,63,46,30.47,30.30,5,1,0,0.00
2013-4-22,69.0,54.4,39.0,46.0,38.6,30.0,74,57,39,30.31,30.04,2,0,0,0.00
2013-4-23,67.0,58.9,52.0,59.0,51.3,42.0,93,76,59,30.05,29.72,6,1,0,0.00
2013-4-24,59.0,45.6,39.0,57.0,41.4,35.0,98,86,65,30.16,29.72,5,2,0,0.00
2013-4-25,55.0,45.6,36.0,44.0,36.1,33.0,91,71,46,30.31,30.15,9,3,0,0.00
2013-4-26,63.0,50.5,37.0,45.0,39.4,33.0,86,67,49,30.38,30.26,2,0,0,0.00
2013-4-27,64.0,54.2,44.0,54.0,46.5,39.0,94,76,52,30.28,29.96,2,0,0,0.00
2013-4-28,62.0,57.0,55.0,59.0,55.6,54.0,99,96,89,29.96,29.78,4,1,0,0.00
2013-4-29,68.0,60.6,59.0,59.0,42.8,-99.9,86,69,70,29.93,29.85,2,1,0,0.00
2013-4-30,81.0,66.2,52.0,66.0,58.4,50.0,96,78,59,29.98,29.86,2,1,0,0.00
2013-5-1,85.0,71.5,56.0,65.0,59.7,53.0,91,68,48,30.09,29.98,2,0,0,0.00
2013-5-2,79.0,70.0,61.0,63.0,59.4,56.0,85,70,54,30.13,30.00,2,0,0,0.00
2013-5-3,76.0,67.7,62.0,66.0,59.9,53.0,92,77,60,30.01,29.85,2,0,0,0.00
2013-5-4,70.0,62.5,56.0,54.0,51.3,46.0,93,67,54,29.96,29.88,2,1,0,0.00
2013-5-5,59.0,55.8,54.0,56.0,53.6,51.0,98,93,81,29.96,29.87,4,1,0,0.00
2013-5-6,67.0,60.0,54.0,60.0,55.8,51.0,98,87,76,29.92,29.84,5,2,0,0.00
2013-5-7,73.0,65.2,57.0,61.0,58.4,55.0,95,80,64,29.94,29.88,3,0,0,0.00
2013-5-8,78.0,68.0,57.0,63.0,60.1,56.0,99,78,55,29.97,29.90,2,0,0,0.00
2013-5-9,80.0,65.9,58.0,63.0,59.2,55.0,98,81,48,29.96,29.85,3,0,0,0.00
2013-5-10,69.0,61.4,52.0,65.0,57.0,-99.9,99,93,84,29.86,29.75,2,0,0,0.00
2013-5-11,63.0,52.2,46.0,56.0,47.1,38.0,97,84,49,29.97,29.82,5,1,0,0.00
2013-5-12,56.0,48.4,40.0,42.0,35.8,-99.9,89,65,45,30.07,29.97,4,1,0,0.00
2013-5-13,64.0,52.5,39.0,42.0,38.1,36.0,89,61,37,30.14,30.05,4,1,0,0.00
2013-5-14,85.0,65.7,51.0,66.0,52.2,40.0,77,62,50,30.06,29.76,6,1,0,0.00
2013-5-15,86.0,76.4,69.0,69.0,64.0,61.0,78,66,54,29.84,29.76,5,2,0,0.00
2013-5-16,80.0,67.5,68.0,70.0,41.4,-99.9,94,78,57,29.91,29.79,5,1,0,0.00
2013-5-17,85.0,69.0,65.0,69.0,61.5,-99.9,97,88,57,29.99,29.91,2,0,0,0.00
2013-5-18,80.0,72.4,65.0,70.0,67.5,64.0,98,86,70,30.00,29.90,2,0,0,0.00
2013-5-19,85.0,75.7,64.0,73.0,69.0,63.0,99,81,63,29.94,29.80,2,0,0,0.00
2013-5-20,84.0,77.9,71.0,74.0,71.7,70.0,99,82,67,29.90,29.79,3,1,0,0.00
2013-5-21,83.0,76.8,71.0,70.0,67.8,65.0,83,74,61,29.75,29.72,3,1,0,0.00
2013-5-22,76.0,69.8,66.0,68.0,65.2,63.0,96,85,70,29.75,29.67,4,1,0,0.00
2013-5-23,66.0,60.2,51.0,63.0,56.9,48.0,98,89,77,30.10,29.74,3,1,0,0.00
2013-5-24,67.0,55.7,47.0,49.0,46.0,43.0,93,72,45,30.31,30.10,1,0,0,0.00
2013-5-25,66.0,56.4,47.0,52.0,46.8,42.0,87,72,50,30.32,30.15,1,0,0,0.00
2013-5-26,69.0,60.9,54.0,58.0,52.0,46.0,94,73,59,30.25,30.11,1,0,0,0.00
2013-5-27,82.0,67.6,56.0,70.0,62.1,55.0,97,83,65,30.13,29.80,4,1,0,0.00
2013-5-28,82.0,73.4,64.0,72.0,67.7,63.0,96,83,68,29.92,29.84,5,1,0,0.00
2013-5-29,85.0,77.4,69.0,70.0,66.3,62.0,82,70,53,29.99,29.89,4,1,0,0.00
2013-5-30,86.0,77.8,69.0,75.0,69.3,65.0,88,76,63,30.03,29.90,4,1,0,0.00
2013-5-31,76.0,72.5,65.0,72.0,69.4,64.0,99,90,83,29.97,29.82,2,1,0,0.00
2013-6-1,76.0,71.9,65.0,72.0,68.2,65.0,99,88,81,29.85,29.72,3,1,0,0.00
2013-6-2,72.0,66.4,60.0,66.0,62.2,56.0,95,87,75,29.93,29.76,2,1,0,0.00
2013-6-3,68.0,59.5,49.0,56.0,51.9,45.0,89,77,60,30.03,29.93,1,0,0,0.00
2013-6-4,78.0,64.6,51.0,56.0,51.4,46.0,87,64,42,30.09,30.00,4,1,0,0.00
2013-6-5,81.0,69.6,57.0,66.0,58.0,51.0,82,68,53,30.03,29.81,2,0,0,0.00
2013-6-6,78.0,68.5,62.0,68.0,61.1,55.0,91,78,67,29.82,29.73,1,0,0,0.00
2013-6-7,76.0,68.4,60.0,65.0,61.6,57.0,94,80,65,29.83,29.77,2,0,0,0.00
2013-6-8,79.0,69.2,59.0,67.0,61.5,56.0,92,77,61,29.96,29.82,1,0,0,0.00
2013-6-9,83.0,72.1,65.0,68.0,64.6,63.0,94,79,54,29.98,29.88,1,0,0,0.00
2013-6-10,75.0,71.0,68.0,67.0,66.2,65.0,91,85,75,29.82,29.75,2,1,0,0.00
2013-6-11,85.0,74.2,63.0,71.0,66.9,62.0,97,80,59,29.93,29.82,2,0,0,0.00
2013-6-12,75.0,73.6,72.0,70.0,69.5,69.0,90,87,83,29.84,29.82,0,0,0,0.00
2013-6-13,79.0,71.6,65.0,63.0,59.6,57.0,76,66,55,29.93,29.84,2,1,0,0.00
2013-6-14,82.0,68.6,58.0,67.0,60.2,55.0,94,76,54,30.02,29.89,2,0,0,0.00
2013-6-15,84.0,72.8,62.0,69.0,63.7,59.0,92,75,56,30.06,29.89,2,0,0,0.00
2013-6-16,79.0,72.8,67.0,72.0,68.2,64.0,96,86,76,29.96,29.88,6,1,0,0.00
2013-6-17,87.0,76.6,68.0,75.0,65.5,-99.9,99,75,57,29.93,29.82,2,0,0,0.00
2013-6-18,87.0,74.9,66.0,72.0,67.1,63.0,95,78,54,29.94,29.83,1,0,0,0.00
2013-6-19,83.0,72.4,61.0,68.0,62.7,58.0,91,73,53,30.06,29.93,3,1,0,0.00
2013-6-20,87.0,72.7,64.0,69.0,63.8,61.0,90,75,48,30.14,30.06,1,0,0,0.00
2013-6-22,89.0,79.3,71.0,77.0,72.6,69.0,94,81,64,30.09,30.00,2,1,0,0.00
2013-6-23,87.0,75.2,68.0,76.0,70.8,66.0,99,87,68,30.07,29.99,4,0,0,0.00
2013-6-24,86.0,76.1,69.0,76.0,71.5,68.0,98,87,64,30.09,29.96,2,0,0,0.00
2013-6-25,90.0,78.4,70.0,78.0,73.5,68.0,97,86,66,29.98,29.83,5,1,0,0.00
2013-6-26,84.0,74.5,68.0,77.0,71.0,67.0,98,89,77,29.88,29.70,4,0,0,0.00
2013-6-27,89.0,76.7,69.0,76.0,62.6,-99.9,98,72,62,29.75,29.66,3,1,0,0.00
2013-6-28,85.0,77.3,66.0,72.0,68.3,65.0,97,75,53,29.67,29.56,4,1,0,0.00
2013-6-29,73.0,68.8,63.0,69.0,66.6,63.0,99,93,84,29.59,29.54,1,0,0,0.00
2013-6-30,76.0,71.0,65.0,69.0,67.1,64.0,98,88,79,29.79,29.70,3,1,0,0.00
2013-7-1,72.0,67.9,66.0,69.0,65.2,63.0,97,91,82,29.88,29.80,3,0,0,0.00
2013-7-2,78.0,70.5,63.0,72.0,67.4,62.0,99,91,78,29.92,29.88,2,0,0,0.00
2013-7-3,80.0,76.3,71.0,69.0,67.8,66.0,85,76,69,30.04,30.00,2,1,0,0.00
2013-7-4,78.0,71.9,65.0,72.0,68.6,64.0,98,90,73,30.09,30.01,1,0,0,0.00
2013-7-5,81.0,76.6,68.0,72.0,70.1,68.0,99,81,70,30.09,29.89,1,0,0,0.00
2013-7-6,73.0,71.3,70.0,71.0,69.4,67.0,98,94,84,30.06,29.98,0,0,0,0.00
2013-7-7,83.0,78.5,65.0,73.0,70.4,65.0,99,77,68,30.04,29.97,1,0,0,0.00
2013-7-8,86.0,78.4,71.0,78.0,73.1,69.0,93,84,68,30.07,29.98,2,0,0,0.00
2013-7-9,88.0,81.5,77.0,81.0,76.5,73.0,96,85,75,30.01,29.92,2,1,0,0.00
2013-7-10,81.0,78.7,74.0,76.0,73.5,72.0,93,84,78,29.92,29.80,1,0,0,0.00
2013-7-11,80.0,72.7,66.0,73.0,63.5,60.0,91,73,57,29.99,29.90,1,0,0,0.00
2013-7-12,79.0,70.7,61.0,65.0,61.6,58.0,90,74,57,30.06,29.98,2,0,0,0.00
2013-7-13,85.0,77.9,67.0,69.0,67.2,62.0,88,70,58,30.08,30.02,3,1,0,0.00
2013-7-14,91.0,82.1,70.0,77.0,73.3,67.0,92,75,62,30.16,30.08,2,0,0,0.00
2013-7-15,90.0,80.6,74.0,77.0,74.4,72.0,96,82,64,30.25,30.15,2,0,0,0.00
2013-7-16,92.0,82.6,73.0,78.0,75.2,71.0,94,79,59,30.29,30.22,0,0,0,0.00
2013-7-17,94.0,84.4,75.0,78.0,75.3,74.0,97,76,56,30.29,30.14,1,0,0,0.00
2013-7-18,93.0,83.5,74.0,78.0,75.2,73.0,97,78,55,30.17,29.98,1,0,0,0.00
2013-7-19,91.0,82.7,77.0,78.0,76.4,75.0,95,82,66,30.00,29.83,3,1,0,0.00
2013-7-20,83.0,74.6,70.0,77.0,70.7,-99.9,97,90,79,29.88,29.80,4,1,0,0.00
2013-7-21,85.0,76.9,68.0,76.0,72.3,67.0,98,86,73,30.08,29.82,0,0,0,0.00
2013-7-22,83.0,75.0,70.0,75.0,69.8,-99.9,98,87,74,29.85,29.72,2,0,0,0.00
2013-7-23,73.0,72.2,72.0,71.0,70.2,70.0,94,94,92,29.79,29.77,0,0,0,0.00
2013-7-24,77.0,73.3,65.0,63.0,60.5,57.0,77,64,60,29.97,29.91,2,1,0,0.00
2013-7-25,80.0,71.2,62.0,61.0,59.1,56.0,82,67,50,30.04,29.97,1,0,0,0.00
2013-7-26,66.0,61.8,59.0,61.0,58.0,56.0,93,88,80,30.05,30.01,0,0,0,0.00
2013-7-27,77.0,72.4,63.0,64.0,59.8,54.0,74,65,58,29.89,29.80,4,2,0,0.00
2013-7-28,72.0,63.9,53.0,58.0,54.3,50.0,94,72,55,30.00,29.88,4,1,0,0.00
2013-7-29,78.0,66.2,56.0,62.0,58.0,55.0,96,76,53,30.13,29.99,2,0,0,0.00
2013-7-30,75.0,68.5,60.0,68.0,63.2,57.0,92,84,70,30.16,30.05,0,0,0,0.00
2013-7-31,75.0,70.4,65.0,72.0,68.1,64.0,99,92,87,30.06,29.88,1,0,0,0.00
2013-8-1,83.0,73.6,66.0,71.0,65.1,60.0,98,78,47,30.11,29.90,4,0,0,0.00
2013-8-2,83.0,70.4,59.0,70.0,64.1,57.0,95,81,62,29.96,29.89,4,1,0,0.00
2013-8-3,84.0,75.5,67.0,73.0,67.7,59.0,99,78,57,30.03,29.90,1,0,0,0.00
2013-8-4,78.0,66.8,59.0,63.0,58.5,54.0,87,75,53,30.12,30.01,2,0,0,0.00
2013-8-5,79.0,70.3,62.0,66.0,62.0,59.0,90,76,59,30.07,29.89,1,0,0,0.00
2013-8-6,81.0,72.8,67.0,75.0,68.6,63.0,94,87,82,29.91,29.85,1,0,0,0.00
2013-8-7,85.0,76.3,73.0,77.0,69.0,-99.9,99,85,76,29.88,29.80,1,0,0,0.00
2013-8-8,86.0,73.3,72.0,78.0,62.9,-99.9,99,83,71,29.91,29.83,1,0,0,0.00
2013-8-9,84.0,66.9,74.0,73.0,43.3,-99.9,81,62,63,29.99,29.92,0,0,0,0.00
2013-8-10,86.0,76.3,70.0,72.0,69.2,67.0,94,80,60,30.06,29.98,1,0,0,0.00
2013-8-11,84.0,75.7,68.0,72.0,68.8,67.0,98,80,56,30.06,29.99,2,0,0,0.00
2013-8-12,84.0,73.5,68.0,70.0,67.8,65.0,95,83,55,30.04,29.84,1,0,0,0.00
2013-8-13,78.0,69.7,60.0,70.0,60.1,-99.9,94,77,59,30.05,29.82,1,0,0,0.00
2013-8-21,88.0,77.0,68.0,75.0,70.8,67.0,99,83,56,30.11,30.00,1,0,0,0.00
2013-8-22,87.0,76.4,69.0,75.0,70.6,68.0,96,83,64,30.06,29.97,1,0,0,0.00
2013-8-23,85.0,75.5,68.0,73.0,69.0,65.0,95,81,62,30.09,30.02,1,0,0,0.00
2013-8-24,83.0,69.4,62.0,65.0,62.3,58.0,90,79,51,30.22,30.10,1,0,0,0.00
2013-8-25,86.0,69.5,62.0,68.0,59.9,-99.9,94,77,50,30.27,30.17,1,0,0,0.00
2013-8-26,89.0,76.7,67.0,77.0,70.3,63.0,95,82,60,30.19,30.03,2,0,0,0.00
2013-8-27,92.0,78.6,72.0,79.0,74.3,71.0,99,88,63,30.18,29.93,2,0,0,0.00
2013-9-1,85.0,74.4,68.0,76.0,68.6,-99.9,99,86,73,29.77,29.71,1,0,0,0.00
2013-9-2,85.0,75.9,69.0,73.0,69.0,63.0,99,80,58,29.88,29.74,1,0,0,0.00
2013-9-3,77.0,65.9,56.0,63.0,58.3,53.0,90,78,56,30.03,29.88,1,0,0,0.00
2013-9-4,82.0,66.8,56.0,64.0,59.7,55.0,98,80,51,30.10,30.01,1,0,0,0.00
2013-9-5,81.0,68.0,62.0,69.0,63.4,61.0,96,86,62,30.14,30.08,1,0,0,0.00
2013-9-6,78.0,66.8,58.0,66.0,58.8,53.0,83,76,63,30.18,30.03,1,0,0,0.00
2013-9-7,87.0,74.3,61.0,72.0,65.6,58.0,90,76,58,30.04,29.90,1,0,0,0.00
2013-9-8,89.0,77.1,70.0,76.0,68.1,-99.9,96,79,54,29.94,29.87,1,0,0,0.00
2013-9-9,91.0,77.8,69.0,77.0,72.0,68.0,98,84,60,29.96,29.88,2,0,0,0.00
2013-9-10,95.0,80.2,75.0,78.0,74.4,71.0,96,84,50,30.06,29.94,1,0,0,0.00
2013-9-11,94.0,81.1,74.0,77.0,72.6,70.0,95,77,48,30.09,29.98,2,0,0,0.00
2013-9-12,81.0,75.4,67.0,73.0,69.7,57.0,99,84,53,29.97,29.83,2,0,0,0.00
2013-9-13,67.0,60.7,55.0,58.0,51.7,47.0,88,73,52,30.05,29.93,1,0,0,0.00
2013-9-14,72.0,55.0,46.0,50.0,46.0,43.0,90,74,40,30.14,30.04,1,0,0,0.00
2013-9-15,77.0,53.9,49.0,60.0,43.7,-99.9,90,76,48,30.07,29.97,1,0,0,0.00
2013-9-16,70.0,62.5,57.0,60.0,57.6,53.0,95,84,69,30.22,30.01,3,0,0,0.00
2013-9-17,76.0,60.8,51.0,59.0,53.8,49.0,94,80,52,30.27,30.10,3,1,0,0.00
2013-9-18,62.0,61.3,61.0,58.0,56.4,55.0,86,84,81,30.10,30.06,0,0,0,0.00
2013-9-19,82.0,70.1,67.0,75.0,63.0,-99.9,99,87,77,30.02,29.87,2,0,0,0.00
2013-9-20,80.0,73.0,68.0,73.0,70.5,67.0,99,92,79,29.91,29.76,2,0,0,0.00
2013-9-21,72.0,63.2,56.0,60.0,55.0,51.0,96,76,51,29.85,29.72,1,0,0,0.00
2013-9-26,80.0,60.5,51.0,61.0,54.7,50.0,96,83,50,30.02,29.88,2,0,0,0.00
2013-9-27,80.0,60.8,53.0,61.0,54.4,50.0,91,81,48,30.12,30.02,1,0,0,0.00
2013-9-28,82.0,66.3,54.0,63.0,57.9,52.0,93,76,52,30.10,29.98,2,0,0,0.00
2013-9-29,68.0,62.0,62.0,63.0,55.1,-99.9,99,85,78,29.99,29.95,1,0,0,0.00
2013-9-30,71.0,66.9,62.0,66.0,64.1,61.0,98,91,84,29.95,29.88,1,0,0,0.00
2013-10-1,69.0,66.5,62.0,66.0,64.3,61.0,98,93,88,29.98,29.94,0,0,0,0.00
2013-10-2,76.0,69.1,63.0,72.0,67.2,62.0,99,94,86,30.05,29.98,0,0,0,0.00
2013-10-3,81.0,72.0,71.0,71.0,59.9,-99.9,91,76,69,30.01,29.91,2,0,0,0.00
2013-10-4,82.0,73.8,66.0,74.0,70.5,66.0,99,90,77,30.02,29.94,1,0,0,0.00
2013-10-5,74.0,70.9,66.0,71.0,64.5,-99.9,99,93,91,29.99,29.85,1,0,0,0.00
2013-10-6,59.0,52.8,48.0,57.0,20.7,-99.9,95,68,72,29.79,29.70,2,0,0,0.00
2013-10-7,61.0,52.0,46.0,52.0,47.4,42.0,95,85,68,30.09,29.77,3,0,0,0.00
2013-10-8,72.0,54.7,44.0,56.0,48.7,43.0,99,83,50,30.20,30.09,2,0,0,0.00
2013-10-9,51.0,49.7,49.0,47.0,46.4,46.0,89,87,85,30.15,30.14,0,0,0,0.00
2013-10-18,65.0,51.9,43.0,52.0,46.2,42.0,99,83,58,29.94,29.86,3,0,0,0.00
2013-10-19,53.0,45.9,42.0,44.0,41.4,38.0,97,85,64,29.91,29.81,2,0,0,0.00
2013-10-20,63.0,50.2,40.0,49.0,41.1,-99.9,91,75,56,29.94,29.87,4,1,0,0.00
2013-10-21,61.0,50.8,43.0,51.0,45.2,34.0,94,82,66,29.94,29.84,4,1,0,0.00
2013-10-22,51.0,40.9,30.0,42.0,34.2,28.0,95,78,53,29.98,29.76,1,0,0,0.00
2013-10-23,48.0,40.9,35.0,40.0,36.1,33.0,97,84,56,30.00,29.72,3,1,0,0.00
2013-10-24,41.0,38.7,36.0,38.0,34.6,30.0,94,86,74,30.23,29.99,2,0,0,0.00
2013-10-25,49.0,41.3,29.0,34.0,30.6,27.0,93,67,50,30.38,30.21,3,0,0,0.00
2013-10-26,56.0,47.2,37.0,45.0,37.6,29.0,85,69,64,30.21,29.86,4,2,0,0.00
2013-10-27,56.0,40.0,31.0,41.0,32.9,-99.9,97,80,54,30.05,29.97,1,0,0,0.00
2013-10-28,61.0,38.4,31.0,41.0,32.5,-99.9,98,87,46,30.24,30.02,1,0,0,0.00
2013-10-29,56.0,47.7,40.0,48.0,42.4,36.0,93,82,72,30.29,30.13,1,0,0,0.00
2013-10-30,52.0,50.6,49.0,52.0,49.8,47.0,99,97,93,30.13,30.06,0,0,0,0.00
2013-11-5,58.0,52.4,49.0,50.0,46.9,43.0,96,82,72,30.31,30.10,2,0,0,0.00
2013-11-6,59.0,54.4,42.0,56.0,49.9,40.0,98,85,70,30.09,29.87,5,2,0,0.00
2013-11-7,49.0,41.5,34.0,40.0,34.0,31.0,94,76,50,30.24,30.05,4,1,0,0.00
2013-11-8,51.0,39.6,29.0,37.0,32.6,28.0,96,78,53,30.31,30.14,2,0,0,0.00
2013-11-9,61.0,49.3,36.0,47.0,37.4,-99.9,80,67,58,30.12,29.93,7,2,0,0.00
2013-11-10,50.0,42.8,33.0,42.0,35.2,30.0,92,75,62,30.28,30.06,4,1,0,0.00
2013-11-11,51.0,41.3,31.0,44.0,36.1,29.0,100,83,64,30.27,30.04,3,1,0,0.00
2013-11-12,32.0,30.2,30.0,31.0,27.2,25.0,95,89,82,30.35,30.28,1,1,0,0.00
2013-11-13,40.0,36.1,32.0,25.0,22.3,21.0,71,57,48,30.49,30.30,3,1,0,0.00
2013-12-4,60.0,45.1,46.0,58.0,30.7,-99.9,99,84,93,29.74,29.59,1,0,0,0.00
2013-12-5,62.0,39.8,25.0,60.0,37.0,24.0,95,90,83,30.14,29.66,5,2,0,0.00
2013-12-6,28.0,25.6,24.0,25.0,23.5,22.0,95,92,86,30.36,30.12,1,0,0,0.00
2013-12-7,28.0,19.9,13.0,21.0,13.2,-99.9,90,79,66,30.55,30.36,1,0,0,0.00
2013-12-8,30.0,24.0,18.0,29.0,21.2,15.0,97,89,83,30.44,29.93,5,2,0,0.00
2013-12-9,30.0,26.1,22.0,29.0,22.6,16.0,97,87,76,30.17,29.92,6,3,0,0.00
2013-12-10,27.0,21.3,13.0,18.0,15.7,10.0,92,79,62,30.16,30.08,10,3,0,0.00
2013-12-11,32.0,21.8,12.0,25.0,17.1,8.0,93,82,72,30.45,30.23,6,2,0,0.00
2013-12-12,19.0,13.4,9.0,8.0,5.4,3.0,83,71,55,30.48,30.25,1,0,0,0.00
2013-12-13,35.0,24.8,13.0,31.0,18.7,6.0,97,78,65,30.25,30.04,2,0,0,0.00
2013-12-14,36.0,32.1,28.0,35.0,29.8,-99.9,98,96,95,30.05,29.66,3,1,0,0.00
2013-12-15,29.0,24.1,20.0,28.0,20.4,15.0,95,86,78,30.04,29.87,8,4,0,0.00
2013-12-16,28.0,24.3,21.0,27.0,22.8,19.0,95,94,92,30.04,29.95,1,0,0,0.00
2013-12-17,28.0,27.7,26.0,26.0,25.7,24.0,93,92,91,30.08,30.01,4,2,0,0.00
2013-12-18,37.0,28.4,18.0,26.0,21.1,15.0,93,75,59,30.19,29.93,3,1,0,0.00
2013-12-19,49.0,44.0,35.0,46.0,37.7,25.0,90,78,66,29.96,29.83,5,1,0,0.00
2013-12-20,60.0,54.4,47.0,59.0,52.8,45.0,99,94,88,29.83,29.69,4,2,0,0.00
2013-12-21,53.0,45.9,51.0,52.0,34.3,-99.9,99,88,98,29.74,29.43,1,0,0,0.00
2013-12-22,40.0,37.0,33.0,39.0,31.3,-99.9,100,92,93,30.00,29.78,6,3,0,0.00
2013-12-23,33.0,28.0,25.0,31.0,24.7,21.0,94,87,84,30.32,30.02,5,2,0,0.00